KINEIS-2A

Last updated on Wed Aug 19 2026 00:02:55 GMT+0000 (Coordinated Universal Time)

1 62932U 25028E 26230.16339168 .00000940 00000+0 15256-3 0 9993 2 62932 98.1255 285.6471 0003844 348.2084 11.9033 14.73516282 81730
UTC large
Height (km)
Speed (km/s)
/
Latitude / Longitude
Inclination (degrees)
Orbital Period (minutes)
Azimuth
Elevation
Range (km)
Doppler Factor

Next 0 passes for location: London (51.5072 / 0.1276)

No passes found over London.
KINEIS-2A